This demonstration page uses our WeatherBlox Daily Observations layout. Learn more.

Hourly Observations for November 3, 2016

Temp ( °F °C ) Dew Point ( °F °C ) Humidity (%) Winds ( mph kmh ) Pressure ( in mb ) Visibility ( mi km ) Precip ( " mm )
12:15 am 00:15 Clear 57 14 57 14 100 100 Calm 30.15 1021 10 16.09344 0 0
12:35 am 00:35 Clear 59 15 59 15 100 100 SW 3 6 30.15 1021 10 16.09344 0 0
12:55 am 00:55 Clear 57 14 57 14 100 100 SW 3 6 30.15 1021 7 11.265408 0 0
1:15 am 01:15 Clear 59 15 59 15 100 100 SW 5 7 30.15 1021 10 16.09344 0 0
1:35 am 01:35 Clear 59 15 59 15 100 100 SSW 7 11 30.15 1021 10 16.09344 0 0
1:55 am 01:55 Clear 59 15 59 15 100 100 SW 3 6 30.12 1020 10 16.09344 0 0
2:15 am 02:15 Clear 59 15 59 15 100 100 Calm 30.12 1020 7 11.265408 0 0
2:35 am 02:35 Clear with Mist and Fog 59 15 59 15 100 100 Calm 30.12 1020 5 8.04672 0 0
2:55 am 02:55 Clear 59 15 59 15 100 100 Calm 30.12 1020 7 11.265408 0 0
3:15 am 03:15 Clear 57 14 57 14 100 100 Calm 30.12 1020 7 11.265408 0 0
3:35 am 03:35 Clear 55 13 55 13 100 100 Calm 30.12 1020 10 16.09344 0 0
3:55 am 03:55 Clear 55 13 55 13 100 100 Calm 30.12 1020 10 16.09344 0 0
4:15 am 04:15 Clear 55 13 55 13 100 100 Calm 30.12 1020 10 16.09344 0 0
4:35 am 04:35 Clear 55 13 55 13 100 100 Calm 30.09 1019 10 16.09344 0 0
4:55 am 04:55 Clear 55 13 55 13 100 100 SSW 8 13 30.09 1019 10 16.09344 0 0
5:15 am 05:15 Clear 55 13 55 13 100 100 SSW 9 15 30.09 1019 10 16.09344 0 0
5:35 am 05:35 Clear 57 14 57 14 100 100 SSW 5 7 30.09 1019 10 16.09344 0 0
5:55 am 05:55 Clear 57 14 57 14 100 100 SSW 5 7 30.09 1019 10 16.09344 0 0
6:15 am 06:15 Clear 59 15 59 15 100 100 SW 6 9 30.06 1018 10 16.09344 0 0
6:35 am 06:35 Clear 57 14 57 14 100 100 WSW 5 7 30.06 1018 10 16.09344 0 0
6:55 am 06:55 Clear 59 15 59 15 100 100 SW 3 6 30.06 1018 10 16.09344 0 0
7:15 am 07:15 Clear 59 15 59 15 100 100 SW 3 6 30.06 1018 10 16.09344 0 0
7:35 am 07:35 Clear 59 15 59 15 100 100 SW 5 7 30.06 1018 10 16.09344 0 0
7:55 am 07:55 Sunny 59 15 59 15 100 100 WSW 5 7 30.06 1018 10 16.09344 0 0
8:15 am 08:15 Sunny 61 16 59 15 94 94 SW 3 6 30.06 1018 10 16.09344 0 0
8:35 am 08:35 Sunny 63 17 59 15 88 88 SW 5 7 30.06 1018 10 16.09344 0 0
8:55 am 08:55 Sunny 64 18 59 15 83 83 SW 3 6 30.06 1018 10 16.09344 0 0
9:15 am 09:15 Partly Cloudy 64 18 61 16 88 88 SSW 3 6 30.06 1018 10 16.09344 0 0
9:35 am 09:35 Partly Cloudy 68 20 61 16 78 78 SW 3 6 30.06 1018 10 16.09344 0 0
9:55 am 09:55 Sunny 72 22 61 16 69 69 S 3 6 30.06 1018 10 16.09344 0 0
10:15 am 10:15 Sunny 73 23 61 16 65 65 SSW 3 6 30.06 1018 10 16.09344 0 0
10:35 am 10:35 Sunny 73 23 59 15 61 61 WSW 7 11 30.06 1018 10 16.09344 0 0
10:55 am 10:55 Sunny 79 26 61 16 54 54 W 9 15 30.03 1017 10 16.09344 0 0
11:15 am 11:15 Sunny 77 25 59 15 54 54 W 9 15 30.03 1017 10 16.09344 0 0
11:35 am 11:35 Sunny 77 25 59 15 54 54 WSW 7 11 30.03 1017 10 16.09344 0 0
11:55 am 11:55 Partly Cloudy 77 25 59 15 54 54 W 9 15 30.03 1017 10 16.09344 0 0
12:15 pm 12:15 Partly Cloudy 77 25 59 15 54 54 W 9 15 30.03 1017 10 16.09344 0 0
12:35 pm 12:35 Mostly Cloudy 77 25 59 15 54 54 WSW 12 19 30.03 1017 10 16.09344 0 0
12:55 pm 12:55 Cloudy with Light Rain 73 23 61 16 65 65 W 8 13 30 1016 10 16.09344 0 0
1:15 pm 13:15 Cloudy with Light Rain 73 23 61 16 65 65 W 5 7 30 1016 10 16.09344 0 0
1:35 pm 13:35 Cloudy with Light Rain 72 22 61 16 69 69 WSW 6 9 30 1016 10 16.09344 0 0
1:55 pm 13:55 Mostly Cloudy 72 22 63 17 73 73 WSW 5 7 30 1016 10 16.09344 0 0
2:15 pm 14:15 Partly Cloudy 73 23 63 17 69 69 W 6 9 29.97 1015 10 16.09344 0 0
2:35 pm 14:35 Partly Cloudy 73 23 63 17 69 69 W 7 11 29.97 1015 10 16.09344 0 0
2:55 pm 14:55 Partly Cloudy 75 24 61 16 61 61 W 7 11 29.97 1015 10 16.09344 0 0
3:15 pm 15:15 Mostly Cloudy 75 24 61 16 61 61 WNW 17 28 29.97 1015 10 16.09344 0 0
3:35 pm 15:35 Cloudy 73 23 61 16 65 65 WNW 17 28 29.97 1015 10 16.09344 0 0
3:55 pm 15:55 Cloudy 73 23 61 16 65 65 NW 13 20 29.97 1015 10 16.09344 0 0
4:15 pm 16:15 Partly Cloudy 73 23 61 16 65 65 NW 15 24 29.97 1015 10 16.09344 0 0
4:35 pm 16:35 Sunny 73 23 61 16 65 65 WNW 16 26 29.97 1015 10 16.09344 0 0
4:55 pm 16:55 Sunny 72 22 61 16 69 69 WNW 15 24 29.97 1015 10 16.09344 0 0
5:15 pm 17:15 Sunny 72 22 61 16 69 69 WNW 12 19 29.97 1015 10 16.09344 0 0
5:35 pm 17:35 Partly Cloudy 72 22 61 16 69 69 WNW 7 11 29.97 1015 10 16.09344 0 0
5:55 pm 17:55 Mostly Cloudy 72 22 61 16 69 69 WNW 6 9 29.97 1015 10 16.09344 0 0
6:15 pm 18:15 Partly Cloudy 70 21 61 16 73 73 WNW 13 20 29.97 1015 10 16.09344 0 0
6:35 pm 18:35 Mostly Cloudy 70 21 61 16 73 73 WNW 13 20 29.97 1015 10 16.09344 0 0
6:55 pm 18:55 Mostly Cloudy 70 21 61 16 73 73 WNW 12 19 30 1016 10 16.09344 0 0
7:15 pm 19:15 Mostly Cloudy 70 21 61 16 73 73 WNW 10 17 30 1016 10 16.09344 0 0
7:35 pm 19:35 Cloudy 70 21 61 16 73 73 NNW 13 20 30 1016 10 16.09344 0 0
7:55 pm 19:55 Cloudy with Light Rain 70 21 61 16 73 73 NNW 12 19 30 1016 10 16.09344 0 0
8:15 pm 20:15 Cloudy with Light Rain 66 19 61 16 83 83 NW 7 11 30 1016 10 16.09344 0 0
8:35 pm 20:35 Cloudy with Light Drizzle 64 18 61 16 88 88 NW 6 9 30 1016 10 16.09344 0 0
8:55 pm 20:55 Cloudy with Light Rain 64 18 63 17 94 94 NNW 3 6 30.03 1017 10 16.09344 0 0
9:15 pm 21:15 Cloudy 64 18 61 16 88 88 NNW 7 11 30.03 1017 10 16.09344 0 0
9:35 pm 21:35 Cloudy 64 18 61 16 88 88 N 5 7 30.03 1017 10 16.09344 0 0
9:55 pm 21:55 Cloudy 64 18 61 16 88 88 NNW 6 9 30.03 1017 10 16.09344 0 0
10:15 pm 22:15 Cloudy 64 18 59 15 83 83 NNW 6 9 30.03 1017 10 16.09344 0 0
10:35 pm 22:35 Partly Cloudy 64 18 59 15 83 83 N 6 9 30.03 1017 10 16.09344 0 0
10:55 pm 22:55 Clear 64 18 57 14 78 78 N 8 13 30.03 1017 10 16.09344 0 0
11:15 pm 23:15 Clear 63 17 55 13 77 77 N 8 13 30.03 1017 10 16.09344 0 0
11:35 pm 23:35 Clear 63 17 54 12 73 73 N 12 19 30.03 1017 10 16.09344 0 0
11:55 pm 23:55 Clear 63 17 54 12 73 73 NNW 9 15 30.03 1017 10 16.09344 0 0

Powered by AerisWeather